Regional Weather Roundup
Issued by NWS Charleston, SC

Current Version | Previous Version | Graphics & Text | Print | Product List | Glossary On
Versions: 1 2 3 4 5 6 7 8 9 10 11 12 13 14 15 16 17 18 19 20 21 22 23 24 25 26 27 28 29 30 31 32 33 34 35 36 37 38 39 40 41 42 43 44 45 46 47 48 49 50
589 ASUS42 KCHS 290827 RWRCHS REGIONAL WEATHER ROUNDUP NATIONAL WEATHER SERVICE CHARLESTON SC 400 AM EDT WED MAR 29 2017 NOTE: "FAIR" INDICATES FEW OR NO CLOUDS BELOW 12,000 FEET WITH NO SIGNIFICANT WEATHER AND/OR OBSTRUCTIONS TO VISIBILITY. NOT ALL STATIONS ARE QUALITY CONTROLLED. USE DATA WITH CAUTION... ESPECIALLY DEWPOINT OBSERVATIONS. SCZ027-030-031-034>040-042>050-290900- ...SOUTHEAST SOUTH CAROLINA... CITY SKY/WX TMP DP RH WIND PRES REMARKS N CHARLESTON CLEAR 63 59 87 CALM 29.94F WATERFRONT PRK N/A 67 63 86 W5 29.93S JOHNS ISLAND FAIR 64 63 94 CALM 29.94S PINOPOLIS N/A 64 63 94 CALM 29.86R MONCKS CORNER N/A 59 57 94 CALM 29.94F FOG SUMMERVILLE FOG 59 57 94 CALM 29.95F VSB 1 BEAUFORT MCAS CLEAR 64 63 96 SW5 29.95S BEAUFORT ARPT FAIR 64 63 94 W5 29.94F HILTON HEAD IS CLEAR 68 63 83 W7 29.95F WALTERBORO SUNNY 61 61 100 CALM 29.95F ALLENDALE FAIR 61 59 94 CALM 29.94F ...SOUTHERN MIDLANDS AND PEE DEE... CITY SKY/WX TMP DP RH WIND PRES REMARKS GEORGETOWN FAIR 61 61 100 NW3 29.95S KINGSTREE FAIR 55 54 94 CALM 29.96S ORANGEBURG CLEAR 60 56 86 CALM 29.96F BARNWELL FAIR 63 57 82 CALM 29.96S AIKEN FAIR 54 52 94 CALM 30.00F MANNING FAIR 59 54 82 CALM 29.96S COLUMBIA CLEAR 56 52 86 W3 29.96F SUMTER CLEAR 60 52 73 N6 29.95S FLORENCE PTCLDY 62 53 72 N5 29.96S MYRTLE BEACH CLEAR 64 57 77 N6 29.95S N MYRTLE BEACH CLEAR 64 57 78 N5 29.93S $$ GAZ063-065-086>088-099>101-113>116-118-119-134>141-150-290900- ...SOUTHEAST GEORGIA... CITY SKY/WX TMP DP RH WIND PRES REMARKS SAVANNAH ARPT CLEAR 64 58 80 SW6 29.96F HUNTER AAF CLEAR 65 63 91 CALM 29.93F FORT STEWART CLEAR 61 58 89 CALM 29.94F STATESBORO CLEAR 61 61 100 CALM 29.96F SYLVANIA SUNNY N/A N/A N/A CALM 29.96F CLAXTON FAIR N/A N/A N/A CALM 29.96F ...CSRA...CENTRAL AND FAR SOUTHEAST GEORGIA... CITY SKY/WX TMP DP RH WIND PRES REMARKS THOMSON CLEAR 54 52 93 CALM 30.02S AUGUSTA-BUSH CLEAR 58 55 90 CALM 29.96F AUGUSTA-DANIEL CLEAR 66 54 65 N8 29.97F SWAINSBORO FAIR 61 61 100 CALM 29.97F VIDALIA CLEAR 64 61 88 CALM 29.97F EASTMAN FAIR 64 62 93 CALM 29.99F HAZLEHURST FAIR 66 66 100 CALM 29.97S ALMA CLEAR 66 63 90 SW3 29.97F WAYCROSS CLEAR 65 65 100 W3 29.98F JESUP FAIR 64 59 82 W3 29.96F BAXLEY FAIR 63 63 100 CALM 29.97F BRUNSWICK CLEAR 64 63 94 W3 29.97F SAINT SIMONS CLEAR 67 60 78 W7 29.96F $$ SCZ027-028-034-036>038-045-046-048>050-GAZ119-141-290900- ...LAKE AND SUPPLEMENTAL COASTAL OBSERVATIONS... STATION/POSITION TIME TEMP WIND PRES WAVE SWELL AIR SEA DIR/SP/G HT/PER HT/PER/DIR (UTC) (F) (DEG/KT/KT) (MB) (FT/S) (FT/S/D) WINYAH BAY 0730 65 300/ 5 1013.0F LAKE MURRAY 0750 62 CALM 1014.6F ACE BASIN NERRS 0745 65 CALM 1014.0S FORT PULASKI 0800 67 66 260/ 4/ 5 1014.4 SAPELO ISLAND 0800 66 CALM 1015.0 $$ ANZ835-935-AMZ111-154-330-350-352-354-370-450-454-472-290900- ...C-MAN AND BUOY OBSERVATIONS... STATION/POSITION TIME TEMP WIND PRES WAVE SWELL AIR SEA DIR/SP/G HT/PER HT/PER/DIR (UTC) (F) (DEG/KT/KT) (MB) (FT/S) (FT/S/D) BUOY 41004 0750 69 71 240/ 16/ 19 1013.0F 5/10 3/120/10 BUOY 41008 0750 67 64 240/ 8/ 10 1014.5F 3/11 3/100/11 FOLLY BEACH CMAN 0800 65 260/ 4/ 5 1014.2F CAPERS NEARSHORE NOT AVBL FRIPP NEARSHORE 0708 65 65 250/ 8/ 10 1014.0F STATION/POSITION TIME TEMP WIND PRES WAVE SWELL AIR SEA DIR/SP/G HT/PER HT/PER/DIR (UTC) (F) (DEG/KT/KT) (MB) (FT/S) (FT/S/D) 5E ST. MARYS GA 0800 68 N/A 3/10 2/120/11 FRYING PAN BUOY 0800 67 70 270/ 12/ 16 1012.6 BUOY 41025 0750 67 74 330/ 12/ 16 1012.4R 6/10 5/140/10 CAPE LOOKOUT NC 0800 65 280/ 2/ 3 1012.5R BUOY 41002 0750 71 72 220/ 14/ 17 1014.0F 6/10 5/ 90/10 BUOY 41010 NOT AVBL ST AUGUSTINE FL 0800 65 68 230/ 3/ 4 1016.3F $$

USA.gov is the U.S. government's official web portal to all federal, state and local government web resources and services.